COSMOS 2491 DEB, 44912

Orbit data source: Space-Track

COSMOS 2491 DEB, 44912 is space debris in LEO originally from a launch on Wed, 25 Dec 2013 UTC launched from the Plesetsk Missile And Space Complex (PKMTR). Debris objects in space refer to the collection of defunct objects orbiting the Earth. Examples of debris include non-operational satellites, rocket bodies, and fragments generated from explosions, collisions, or faulty payload assembly.

Loading next visibility...
COSMOS 2491 DEB details
Identifier
44912, 2013-076F
Orbit
LEO
Last TLE update20 hours ago
Origin
Flag of CISTsNIIKhM (CIS)
ManufacturerTsNIIKhM
MissionSpacecraft
Bus & MotorUnknown
MassUnknown
Launch date (UTC)
2013-12-25 (11 years ago)
Launch vehicleUnknown
Launch site
Plesetsk Missile And Space Complex (PKMTR)
Object type
Payload
Rocket body
Debris
Shape & HBRUnknown
Radar Cross SectionSmall (<0.1 m²)

Expand to show TLE details & history

TLE from 20 hours ago
0 COSMOS 2491 DEB
1 44912U 13076F   24346.06986077  .00010265  00000-0  48586-1 0  9995
2 44912  82.4476 112.8879 0157448 301.6243  56.9571 12.70849069227401
Epoch: 2024-12-11T01:40Z
Definitive object data (Epoch: 2024-12-11T01:40:35.97Z)
Latitude-0.00001°
Longitude7.46819°
Altitude1,315.989 km
Speed7.229 km/s
True Right ascension07h 31m 33s
True Declination0° 00' 00"
Sunlit
Object was in full shadow at TLE epoch
Visualization TLE readout
Latitude-2.76686°
Longitude-172.71265°
Altitude1,435.578 km
Speed7.119 km/s
Apparent Right ascension18h 48m 24s
Apparent Declination-56° 05' 47"
Sunlit
Object is in daylight
Visualization observer readout
Local Sidereal Time19:56:36
Azimuth189.487° SSW
Elevation-7.097°
Doppler factor1
Orbital elements
Apogee altitude1,497.88 km
Perigee altitude1,253.712 km
Semi-major axis7,753.933 km
Eccentricity0.0157448
Inclination82.4476°
RAAN112.8879°
Arg. of periapsis301.6243°
True anomaly58.48573°
Mean anomaly56.9571°
Eccentric anomaly57.71979°
Mean motion3.17878 °/min
BSTAR0.048586
Orbital period113.25 mins
Loading maneuver chart data...
Loading historical data...
Loading historical data...
Loading historical data...
Loading historical data...
Loading historical data...
Loading historical data...
Loading historical data...

COSMOS 2491 DEB Visibility forecast

Observer location: undefined°, undefined

Span
Click to sort rows by Start time (UTC) header in descending order
Start Az.
Max El. time (UTC)
Max El. Az.
Max El.
End time (UTC)
End Az.
13 mins2024-12-12 08:00:44.371Z136.34° SSE2024-12-12 08:06:44.371Z87.023° E25.284°2024-12-12 08:13:44.371Z29.23° NE
14 mins2024-12-12 09:54:44.371Z208.704° SW2024-12-12 10:00:44.371Z282.114° WNW40.338°2024-12-12 10:08:44.371Z0.087° NNE
15 mins2024-12-12 19:51:44.371Z2.535° NNE2024-12-12 19:58:44.371Z72.84° E40.284°2024-12-12 20:06:44.371Z154.551° SSE
|